User: anonymous   Login
Location: St. Louis
(38.6270°N, 90.1994°W)
Time: 14:25:18
(UTC-05:00)
Language:

FENGYUN 1C DEB - Orbit

View from above orbital plane
View from above orbital plane
View from above satellite
View from above satellite

Ground track
Ground track

The orbit data is extracted from the following two-line orbital elements,

1 31357U 99025BRM 22224.04837882 -.00000019  00000-0  11899-4 0  9999
2 31357  98.7740 264.0275 0049591 194.8782 194.6765 14.18278236794289
Epoch (UTC): 12 August 2022 01:09:39
Eccentricity: 0.0049591
inclination: 98.7740°
perigee height: 795 km
apogee height: 867 km
right ascension of ascending node: 264.0275°
argument of perigee: 194.8782°
revolutions per day: 14.18278236
mean anomaly at epoch: 194.6765°
orbit number at epoch: 79428

The dashed part of the orbit path shows where the satellite is in the earth's shadow,  

DLR